Meteo Giornale » Osservazioni meteo Germania » Dresda-Klotzsche

ore: 23:50 - Osservazioni Meteo Dresda-Klotzsche
Lat. 51° 8' N Lon. 13° 45' E Alt. 230 metri s.l.m.

nuvoloso_piovaschi

16 °C

Pioggia

Temp. 24 Ore

15 °C

22 °C

Nord-Ovest

7.4 Km/h

Dew point 13 °C

Umidità 82 %

Visibilità  10 Km

Il sole sorge alle ore 06:19

Il sole tramonta alle ore 19:49

Data e Ora Cielo e Fenomeni T °C DP °C Um. % Pres. hPa Vis. km Vento km/h
Ieri h: 23:50 nuvoloso_piovaschi Pioggia 16 13 82 1021 10 NO 7.4
Ieri h: 23:20 nuvoloso_piovaschi Pioggia 17 12 72 1020 10 NO 11.1
Ieri h: 22:50 poco_nuvoloso Pioggia nelle vicinanze 17 12 72 1020 10 SO 7.4
Ieri h: 22:20 sereno Sereno 17 11 67 1020 10 S/SO 11.1
Ieri h: 21:50 sereno Sereno 18 11 63 1020 10 O/SO 7.4
Ieri h: 21:20 sereno Sereno 19 11 59 1020 10 N 5.5
Ieri h: 20:50 sereno Sereno 19 11 59 1019 10 O/SO 7.4
Ieri h: 20:20 sereno Sereno 20 11 56 1019 10 N 5.5
Ieri h: 19:50 sereno Sereno 20 11 56 1019 10 N 5.5
Ieri h: 19:20 sereno Sereno 21 11 52 1019 10 O 7.4
Ieri h: 18:50 sereno Sereno 22 11 49 1019 10 O/SO 11.1
Ieri h: 18:20 sereno Sereno 21 11 52 1019 10 O 16.7
Ieri h: 17:50 poco_nuvoloso Poco Nuvoloso 22 12 53 1019 10 O 13
Ieri h: 17:20 poco_nuvoloso Poco Nuvoloso 22 12 53 1019 10 O 13
Ieri h: 16:50 poco_nuvoloso Poco Nuvoloso 22 11 49 1019 10 O 18.5
Ieri h: 16:20 poco_nuvoloso Poco Nuvoloso 22 11 49 1019 10 O/SO 20.3
Ieri h: 15:50 nuvoloso Nuvoloso 22 11 49 1019 10 O/SO 20.3
Ieri h: 15:20 nuvoloso Nuvoloso 22 11 49 1019 10 O 14.8
Ieri h: 14:50 poco_nuvoloso Poco Nuvoloso 22 12 53 1019 10 O 14.8
Ieri h: 14:20 poco_nuvoloso Poco Nuvoloso 22 12 53 1019 10 O 13
Ieri h: 13:50 poco_nuvoloso Poco Nuvoloso 20 11 56 1020 10 O 18.5
Ieri h: 13:20 nuvoloso Nuvoloso 20 11 56 1020 10 O 16.7
Ieri h: 12:50 molto_nuvoloso Molto Nuvoloso 21 12 56 1020 10 O 16.7
Ieri h: 12:20 molto_nuvoloso Molto Nuvoloso 20 12 59 1020 10 O 16.7
Ieri h: 11:50 molto_nuvoloso Molto Nuvoloso 19 12 63 1019 10 O 18.5
Ieri h: 11:20 molto_nuvoloso Molto Nuvoloso 19 12 63 1019 10 O 20.3
Ieri h: 10:50 molto_nuvoloso Molto Nuvoloso 19 12 63 1019 10 O 20.3
Ieri h: 10:20 molto_nuvoloso Molto Nuvoloso 18 12 67 1019 10 O 18.5
Ieri h: 09:50 nuvoloso Nuvoloso 18 12 67 1019 10 O 20.3
Ieri h: 09:20 molto_nuvoloso Molto Nuvoloso 17 12 72 1019 10 O 18.5
Ieri h: 08:50 coperto Coperto 17 12 72 1018 10 O 14.8
Ieri h: 08:20 nuvoloso_piovaschi Pioggia 16 12 77 1018 10 O 18.5
Ieri h: 07:50 molto_nuvoloso Molto Nuvoloso 16 11 72 1018 10 O 18.5
Ieri h: 07:20 molto_nuvoloso Molto Nuvoloso 16 11 72 1018 10 O 16.7
Ieri h: 06:50 molto_nuvoloso Molto Nuvoloso 16 11 72 1018 10 O 18.5
Ieri h: 06:20 molto_nuvoloso Molto Nuvoloso 16 11 72 1017 10 O 16.7
Ieri h: 05:50 molto_nuvoloso Molto Nuvoloso 16 11 72 1017 10 O/SO 14.8
Ieri h: 05:20 molto_nuvoloso Molto Nuvoloso 16 11 72 1017 10 O/SO 16.7
Ieri h: 04:50 molto_nuvoloso Molto Nuvoloso 15 11 76 1017 10 SO 16.7
Ieri h: 04:20 poco_nuvoloso Poco Nuvoloso 15 11 76 1017 10 SO 14.8
Ieri h: 03:50 poco_nuvoloso Poco Nuvoloso 15 11 76 1017 10 O/SO 13
Ieri h: 03:20 sereno Sereno 15 11 76 1017 10 O/SO 14.8
Ieri h: 02:50 sereno Sereno 16 11 72 1017 10 O/SO 16.7
Ieri h: 02:20 sereno Sereno 16 11 72 1017 10 O/SO 14.8
Ieri h: 01:50 sereno Sereno 16 11 72 1016 10 O/SO 14.8
Ieri h: 01:20 sereno Sereno 16 11 72 1016 10 O/SO 14.8
Ieri h: 00:50 sereno Sereno 17 11 67 1016 10 O 18.5